DateTimeUTC,F1_A11,F1_S11,BsB_S11,BsG_S11,BsR_S11,BbsB_S11,BbsG_S11,BbsR_S11,BaB_A11,BaG_A11,BaR_A11,Tu_S11,T_S11,Uu_S11,U_S11,P_S11,T1_A11
2021-09-12T10:00:00Z,00000200,21000000,,,,,,,0000.23,0000.01,0000.04,18.9,25.9,,00.0,0660.1,31.0
2021-09-12T10:01:00Z,00000200,21000000,,,,,,,-000.03,0000.63,-000.20,18.9,25.9,,00.0,0660.1,31.0
2021-09-12T10:02:00Z,00000200,21000000,,,,,,,0000.29,-000.22,0000.16,18.9,26.0,,00.0,0660.1,31.1
2021-09-12T10:03:00Z,00000200,61000000,,,,,,,0000.20,0000.39,0000.39,19.0,26.0,,00.0,0660.1,31.1
2021-09-12T10:04:00Z,00000200,41000000,0001.02,0000.56,0000.14,-000.12,0000.46,0000.16,-000.01,0000.16,0000.36,19.4,26.0,00.1,00.1,0661.1,31.1
2021-09-12T10:05:00Z,00000200,01000000,0001.00,0000.79,0000.40,0000.16,0000.32,0000.10,0000.17,0000.01,-000.25,19.5,26.0,00.1,00.1,0661.1,31.1
2021-09-12T10:06:00Z,00000200,01000000,0000.76,0000.51,0000.33,0000.07,0000.36,-000.35,0000.46,0000.04,0000.38,19.5,25.9,00.1,00.1,0661.1,31.1
2021-09-12T10:07:00Z,00000200,01000000,0000.16,0000.44,0000.04,-000.16,0000.00,0000.16,-000.58,-000.20,-000.46,19.5,25.9,00.1,00.1,0661.0,31.1
2021-09-12T10:08:00Z,00000200,01000000,0000.43,0000.74,0000.28,0000.08,0000.00,0000.21,0000.12,0000.08,-000.01,19.4,25.9,00.1,00.1,0661.0,31.0
2021-09-12T10:09:00Z,00000200,01000000,0000.77,0000.52,0000.04,0000.51,0000.07,0000.04,-000.16,-000.13,0000.05,19.3,25.8,00.1,00.1,0661.0,31.0
2021-09-12T10:10:00Z,00000200,01000000,0000.72,0000.33,0000.43,-000.10,0000.05,0000.11,0000.40,0000.04,-000.03,19.2,25.8,00.1,00.1,0661.1,31.0
2021-09-12T10:11:00Z,00000200,01000000,0000.95,0000.29,0000.26,0000.10,0000.18,0000.47,0000.29,0000.28,0000.34,19.1,25.7,00.1,00.1,0661.0,31.0
2021-09-12T10:12:00Z,00000200,01000000,0000.65,0000.65,0000.22,0000.19,0000.14,0000.15,0000.23,0000.20,0000.08,19.1,25.7,00.1,00.1,0661.1,31.0
2021-09-12T10:13:00Z,00000200,01000000,-000.04,0000.61,0000.23,-000.43,0000.65,0000.20,0000.28,0000.58,0000.27,19.2,25.7,00.2,00.1,0660.9,31.0
2021-09-12T10:14:00Z,00000200,01000000,0001.06,0000.52,0000.27,0000.04,0000.10,0000.21,0000.17,-000.01,0000.05,19.2,25.7,00.1,00.1,0661.1,31.0
2021-09-12T10:15:00Z,00000200,01000000,0000.52,0000.51,0000.30,0000.08,-000.06,0000.37,-000.01,0000.24,0000.07,19.3,25.7,00.1,00.1,0661.1,31.0
2021-09-12T10:16:00Z,00000200,01000000,0000.89,0000.69,-000.11,-000.06,0000.29,-000.33,-000.01,-000.14,0000.04,19.3,25.8,00.1,00.1,0660.9,31.0
2021-09-12T10:17:00Z,00000200,01000000,0000.56,0000.57,0000.12,0000.11,0000.42,-000.08,0000.21,-000.05,0000.37,19.4,25.8,00.1,00.1,0661.0,31.1
2021-09-12T10:18:00Z,00000200,01000000,0000.32,0000.55,0000.09,0000.03,-000.01,0000.11,0000.08,0000.48,-000.05,19.4,25.8,00.1,00.1,0660.9,31.1
2021-09-12T10:19:00Z,00000200,01000000,0000.97,0000.91,0000.27,-000.09,0000.24,-000.03,0000.38,0000.24,0000.25,19.5,25.9,00.1,00.1,0660.9,31.1
2021-09-12T10:20:00Z,00000200,01000000,0000.23,0000.55,0000.18,0000.49,0000.16,0000.04,0000.03,-000.36,0000.21,19.5,25.9,00.1,00.0,0660.8,31.1
2021-09-12T10:21:00Z,00000200,01000000,0000.69,0000.60,0000.34,-000.07,0000.24,-000.12,0000.07,0000.47,-000.33,19.4,25.8,00.1,00.0,0660.9,31.1
2021-09-12T10:22:00Z,00000200,01000000,0001.16,0000.78,0000.29,-000.18,0000.22,0000.12,-000.19,-000.18,-000.14,19.3,25.8,00.1,00.1,0660.9,31.0
2021-09-12T10:23:00Z,00000200,01000000,0000.94,0000.74,0000.32,0000.13,-000.12,0000.17,-000.03,-000.22,0000.10,19.2,25.7,00.1,00.0,0660.8,31.0
2021-09-12T10:24:00Z,00000200,01000000,0000.49,0000.51,0000.40,-000.27,0000.35,0000.16,0000.10,0000.05,-000.25,19.1,25.7,00.1,00.1,0661.0,31.0
2021-09-12T10:25:00Z,00000200,01000000,0000.53,0000.42,0000.38,0000.22,0000.24,-000.05,0000.12,-000.06,0000.02,19.0,25.6,00.1,00.1,0661.0,31.0
2021-09-12T10:26:00Z,00000200,01000000,0000.72,0000.80,0000.42,0000.23,-000.02,0000.37,0000.36,0000.64,0000.48,18.9,25.6,00.1,00.1,0660.9,31.0
2021-09-12T10:27:00Z,00000200,01000000,0001.41,0000.75,0000.49,-000.42,0000.41,0000.16,0000.32,0000.12,0000.64,18.9,25.5,00.1,00.1,0660.9,31.0
2021-09-12T10:28:00Z,00000200,01000000,0000.82,0000.53,0000.16,0000.29,0000.05,0000.16,0000.24,0000.37,-000.13,19.0,25.6,00.1,00.1,0660.9,31.0
2021-09-12T10:29:00Z,00000200,01000000,0000.79,0000.76,0000.65,0000.70,0000.13,0000.48,0000.26,0000.14,0000.28,19.1,25.6,00.2,00.1,0660.8,31.0
2021-09-12T10:30:00Z,00000200,01000000,0000.23,0000.57,0000.09,0000.52,0000.03,0000.14,0000.40,0000.46,0000.15,19.1,25.6,00.1,00.1,0661.1,31.0
2021-09-12T10:31:00Z,00000200,01000000,0000.75,0000.51,0000.41,0000.13,0000.40,-000.01,-000.19,0000.14,0000.15,19.2,25.7,00.2,00.1,0661.1,31.1
2021-09-12T10:32:00Z,00000200,01000000,0000.40,0000.61,0000.25,0000.34,0000.16,0000.02,0000.00,0000.02,0000.40,19.3,25.7,00.1,00.1,0660.9,31.1
2021-09-12T10:33:00Z,00000200,01000000,0000.21,0000.76,0000.49,-000.45,0000.12,0000.22,0000.24,0000.01,0000.05,19.4,25.8,00.1,00.1,0661.0,31.1
2021-09-12T10:34:00Z,00000200,01000000,0001.76,0000.49,0000.59,0001.24,0000.26,0000.22,0000.49,0000.23,-000.00,19.4,25.8,00.1,00.0,0660.9,31.1
2021-09-12T10:35:00Z,00000200,01000000,0000.23,0000.38,0000.47,0000.23,0000.35,0000.28,0000.29,0000.28,-000.03,19.5,25.8,00.1,00.0,0661.0,31.1
2021-09-12T10:36:00Z,00000200,01000000,0000.18,0000.79,0000.38,-000.68,0000.17,0000.48,-000.29,0000.26,0000.21,19.6,25.9,00.1,00.1,0661.0,31.1
2021-09-12T10:37:00Z,00000200,01000000,0000.71,0000.51,0000.41,0000.62,0000.05,-000.01,0000.09,0000.09,-000.05,19.6,25.9,00.1,00.1,0661.2,31.1
2021-09-12T10:38:00Z,00000200,01000000,0000.67,0000.80,0000.53,0000.25,0000.20,0000.29,0000.83,0000.26,0000.35,19.7,25.9,00.1,00.0,0661.1,31.1
2021-09-12T10:39:00Z,00000200,01000000,0001.03,0000.48,0000.47,0000.05,0000.28,0000.21,-000.23,-000.06,0000.10,19.6,25.9,00.1,00.0,0661.0,31.1
2021-09-12T10:40:00Z,00000200,01000000,0001.40,0000.75,0000.46,0000.34,0000.35,0000.09,0000.12,-000.14,-000.03,19.6,25.9,00.1,00.1,0661.2,31.1
2021-09-12T10:41:00Z,00000200,01000000,0000.58,0000.79,0000.41,-000.32,0000.20,0000.13,0000.28,0000.31,0000.44,19.5,25.8,00.1,00.1,0661.1,31.1
2021-09-12T10:42:00Z,00000200,01000000,0000.42,0000.73,0000.30,-000.31,0000.59,0000.19,0000.47,0000.41,-000.17,19.5,25.8,00.1,00.1,0661.0,31.1
2021-09-12T10:43:00Z,00000200,01000000,0001.18,0000.94,0000.32,0000.37,0000.19,0000.00,0000.14,0000.23,0000.38,19.5,25.8,00.1,00.1,0661.1,31.1
2021-09-12T10:44:00Z,00000200,01000000,0000.92,0000.73,0000.46,0000.74,0000.09,0000.29,0000.13,0000.03,0000.03,19.6,25.9,00.1,00.1,0661.2,31.1
2021-09-12T10:45:00Z,00000200,01000000,0000.88,0000.67,0000.48,0000.40,0000.24,0000.41,0000.16,0000.59,0000.37,19.6,25.9,00.1,00.1,0661.3,31.1
2021-09-12T10:46:00Z,00000200,01000000,0000.71,0000.56,0000.34,-000.60,0000.38,0000.17,0000.22,-000.02,-000.31,19.5,25.9,00.2,00.1,0661.2,31.1
2021-09-12T10:47:00Z,00000200,01000000,0000.95,0000.83,0000.65,0000.19,0000.01,0000.32,-000.29,-000.21,0000.18,19.5,25.9,00.1,00.1,0661.3,31.1
2021-09-12T10:48:00Z,00000200,01000000,0000.82,0000.61,0000.63,-000.23,0000.12,0000.46,0000.59,0000.11,0000.26,19.4,25.8,00.2,00.1,0661.0,31.0
2021-09-12T10:49:00Z,00000200,01000000,0001.37,0001.36,0000.39,-000.19,0000.14,0000.22,-000.05,0000.12,-000.16,19.3,25.7,00.1,00.1,0661.4,31.0
2021-09-12T10:50:00Z,00000200,01000000,0000.64,0000.75,0000.14,-000.10,0000.06,0000.17,0000.32,0000.23,0000.19,19.2,25.7,00.2,00.1,0661.5,31.0
2021-09-12T10:51:00Z,00000200,01000000,0001.30,0000.73,0000.62,0000.67,0000.07,0000.10,0000.10,-000.19,0000.31,19.1,25.7,00.2,00.1,0661.4,31.0
2021-09-12T10:52:00Z,00000200,01000000,0001.62,0000.70,0000.44,0000.00,0000.23,0000.02,-000.10,0000.22,-000.35,19.1,25.6,00.2,00.1,0661.2,31.0
2021-09-12T10:53:00Z,00000200,01000000,0000.76,0000.86,0000.16,0000.52,0000.12,0000.37,0000.08,0000.30,0000.36,19.0,25.6,00.2,00.1,0661.1,31.0
2021-09-12T10:54:00Z,00000200,01000000,0000.74,0000.94,0000.66,-000.31,0000.32,0000.17,0000.34,0000.05,0000.24,18.9,25.5,00.2,00.1,0661.3,31.0
2021-09-12T10:55:00Z,00000200,01000000,0001.48,0001.04,0000.79,0000.04,0000.42,0000.19,0000.63,0000.33,0000.09,18.9,25.5,00.2,00.2,0661.1,31.0
2021-09-12T10:56:00Z,00000200,01000000,0001.04,0000.79,0000.35,-000.42,0000.09,0000.18,0000.28,0000.63,0000.43,18.8,25.4,00.2,00.2,0661.1,31.0
2021-09-12T10:57:00Z,00000200,41000000,,,,,,,0000.28,-000.19,0000.19,18.9,25.4,,00.0,0661.0,31.0
2021-09-12T10:58:00Z,00000200,61000000,,,,,,,0000.02,0000.33,0000.04,18.6,25.6,00.0,00.0,0660.0,31.0
2021-09-12T10:59:00Z,00000200,21000000,,,,,,,-000.22,-000.11,-000.12,18.6,25.7,,00.0,0659.9,31.0
